This demonstration page uses our WeatherBlox Daily Observations layout. Learn more.

Left ArrowRight Arrow

Hourly Observations for October 7, 2022

Temp ( °F °C ) Dew Point ( °F °C ) Humidity (%) Winds ( mph kmh ) Pressure ( in mb ) Visibility ( mi km ) Precip ( " mm )
12:54 am 00:54 Mostly Cloudy 48 8.9 32 0 54 54 N 9 15 30.43 1030 10 16 0.00 0.00
1:54 am 01:54 Cloudy 49 9.4 32 0 52 52 NNE 8 13 30.43 1031 10 16 0.01 0.13
2:54 am 02:54 Mostly Cloudy with Light Rain 48 8.9 33 0.6 56 56 NNE 12 19 30.45 1031 10 16 0.01 0.13
3:54 am 03:54 Mostly Cloudy 48 8.9 32 0 54 54 NNE 10 17 30.45 1031 10 16 0.01 0.13
4:54 am 04:54 Cloudy with Light Rain 46 7.8 36 2.2 68 68 N 10 17 30.49 1033 9 14 0.01 0.13
5:54 am 05:54 Mostly Cloudy 44 6.7 33 0.6 65 65 N 12 19 30.51 1033 10 16 0.01 0.25
6:54 am 06:54 Cloudy 44 6.7 32 0 62 62 N 14 22 30.53 1034 10 16 0.00 0.00
7:54 am 07:54 Cloudy 43 6.1 32 0 65 65 N 10 17 30.55 1034 10 16 0.00 0.00
8:54 am 08:54 Partly Cloudy 45 7.2 32 0 60 60 N 13 20 30.56 1035 10 16 0.00 0.00
9:54 am 09:54 Sunny 47 8.3 33 0.6 58 58 NNE 9 15 30.57 1035 10 16 0.00 0.00
10:54 am 10:54 Mostly Sunny 50 10 33 0.6 52 52 NNE 9 15 30.58 1035 10 16 0.00 0.00
11:54 am 11:54 Sunny 54 12.2 33 0.6 45 45 NNE 13 20 30.57 1035 10 16 0.00 0.00
12:54 pm 12:54 Sunny 56 13.3 32 0 40 40 NNE 13 20 30.56 1035 10 16 0.00 0.00
1:54 pm 13:54 Sunny 58 14.4 32 0 37 37 NNE 13 20 30.53 1034 10 16 0.00 0.00
2:54 pm 14:54 Mostly Sunny 58 14.4 30 -1.1 34 34 N 13 20 30.50 1033 10 16 0.00 0.00
3:54 pm 15:54 Sunny 59 15 29 -1.7 32 32 NNE 8 13 30.49 1033 10 16 0.00 0.00
4:54 pm 16:54 Sunny 58 14.4 28 -2.2 32 32 N 8 13 30.48 1032 10 16 0.00 0.00
5:54 pm 17:54 Sunny 57 13.9 27 -2.8 31 31 N 5 7 30.48 1032 10 16 0.00 0.00
6:54 pm 18:54 Sunny 50 10 26 -3.3 39 39 N 8 13 30.48 1032 10 16 0.00 0.00
7:54 pm 19:54 Clear 43 6.1 26 -3.3 51 51 N 7 11 30.50 1033 10 16 0.00 0.00
8:54 pm 20:54 Clear 43 6.1 27 -2.8 53 53 Calm 30.51 1033 10 16 0.00 0.00
9:54 pm 21:54 Clear 35 1.7 26 -3.3 69 69 Calm 30.52 1034 10 16 0.00 0.00
10:54 pm 22:54 Clear 33 0.6 26 -3.3 75 75 N 3 6 30.53 1034 10 16 0.00 0.00
11:54 pm 23:54 Clear 37 2.8 27 -2.8 67 67 Calm 30.52 1034 10 16 0.00 0.00

Powered by AerisWeather